Weather History for KSUN - October, 2012

Change the Weather History Date:

Tuesday, October 2, 2012

  Actual Average Record
Temperature  
Mean Temperature 58 °F -  
Max Temperature 75 °F 66 °F 84 °F (2010)
Min Temperature 42 °F 37 °F 30 °F (2007)
Degree Days  
Heating Degree Days 6    
Growing Degree Days 8 (Base 50)    
Moisture  
Dew Point 30 °F    
Average Humidity 44    
Maximum Humidity 66    
Minimum Humidity 17    
Precipitation  
Precipitation 0.00 in - - ()
Sea Level Pressure  
Sea Level Pressure 30.08 in    
Wind  
Wind Speed 9 mph (WNW)    
Max Wind Speed 16 mph    
Max Gust Speed 26 mph    
Visibility 10 miles    
Events      
Averages and records for this station are not official NWS values.
T = Trace of Precipitation, MM = Missing Value Source: NWS Daily Summary

Daily Weather History Graph

Daily Weather History Graph

Search for Another Location

Airport or City:

Trip Planner

Search our weather history database for the weather conditions in past years. The results will help you decide how hot, cold, wet, or windy it might be!

Date:

Astronomy

Oct. 02, 2012 Rise Set
Actual Time 7:36 AM MDT 7:15 PM MDT
Civil Twilight 7:07 AM MDT 7:43 PM MDT
Nautical Twilight 6:34 AM MDT 8:17 PM MDT
Astronomical Twilight 6:01 AM MDT 8:50 PM MDT
Moon 8:24 PM MDT (10/2) 10:13 AM MDT (10/2)
Length of Visible Light 12h 35m
Length of Day
11h 38m
Waning Gibbous, 94% of the Moon is Illuminated
Oct 2
Waning Gibbous
Oct 8
Last Quarter
Oct 15
New
Oct 21
First Quarter
Oct 29
Full

Hourly Weather History & Observations

Time (MDT) Temp. Windchill Dew Point Humidity Pressure Visibility Wind Dir Wind Speed Gust Speed Precip Events Conditions
12:15 AM 51.8 °F - 33.8 °F 50% 30.16 in 10.0 mi WNW 10.4 mph - N/A   Clear
12:35 AM 51.8 °F - 33.8 °F 50% 30.16 in 10.0 mi WNW 10.4 mph - N/A   Clear
1:15 AM 51.8 °F - 33.8 °F 50% 30.16 in 10.0 mi WNW 9.2 mph - N/A   Clear
1:35 AM 50.0 °F - 33.8 °F 54% 30.16 in 10.0 mi NW 8.1 mph - N/A   Clear
1:55 AM 50.0 °F - 32.0 °F 50% 30.15 in 10.0 mi NW 5.8 mph - N/A   Clear
2:15 AM 50.0 °F - 32.0 °F 50% 30.15 in 10.0 mi NW 11.5 mph - N/A   Clear
2:35 AM 48.2 °F - 32.0 °F 54% 30.15 in 10.0 mi NW 10.4 mph - N/A   Clear
2:55 AM 48.2 °F - 32.0 °F 54% 30.14 in 10.0 mi NW 10.4 mph - N/A   Clear
3:15 AM 48.2 °F - 32.0 °F 54% 30.14 in 10.0 mi NW 11.5 mph - N/A   Clear
3:35 AM 46.4 °F 41.5 °F 32.0 °F 57% 30.13 in 10.0 mi NW 10.4 mph - N/A   Clear
3:55 AM 46.4 °F 41.9 °F 32.0 °F 57% 30.13 in 10.0 mi NW 9.2 mph - N/A   Clear
4:55 AM 44.6 °F 38.4 °F 32.0 °F 61% 30.13 in 10.0 mi NW 12.7 mph - N/A   Clear
5:15 AM 44.6 °F 38.8 °F 32.0 °F 61% 30.13 in 10.0 mi NW 11.5 mph - N/A   Clear
5:35 AM 44.6 °F 39.2 °F 32.0 °F 61% 30.13 in 10.0 mi NW 10.4 mph - N/A   Clear
6:15 AM 44.6 °F 40.7 °F 32.0 °F 61% 30.12 in 10.0 mi NW 6.9 mph - N/A   Clear
6:35 AM 44.6 °F 40.7 °F 32.0 °F 61% 30.12 in 10.0 mi NW 6.9 mph - N/A   Clear
6:47 AM 44.6 °F 40.2 °F 30.2 °F 57% 30.12 in 10.0 mi WNW 8.1 mph - N/A   Clear
6:55 AM 42.8 °F 38.0 °F 32.0 °F 66% 30.12 in 10.0 mi NW 8.1 mph - N/A   Clear
7:47 AM 42.8 °F 37.5 °F 30.2 °F 61% 30.12 in 10.0 mi WNW 9.2 mph - N/A   Clear
8:47 AM 42.8 °F 37.5 °F 30.2 °F 61% 30.12 in 10.0 mi WNW 9.2 mph - N/A   Clear
9:47 AM 51.8 °F - 30.2 °F 44% 30.11 in 10.0 mi NW 11.5 mph - N/A   Partly Cloudy
10:47 AM 60.8 °F - 32.0 °F 34% 30.10 in 10.0 mi NW 3.5 mph - N/A   Partly Cloudy
11:47 AM 66.2 °F - 37.4 °F 35% 30.07 in 10.0 mi SE 9.2 mph - N/A   Partly Cloudy
12:52 PM 75.2 °F - 28.4 °F 18% 30.04 in 10.0 mi WSW 11.5 mph 23.0 mph N/A   Partly Cloudy
1:47 PM 75.2 °F - 26.6 °F 17% 30.01 in 10.0 mi WSW 8.1 mph 17.3 mph N/A   Partly Cloudy
2:47 PM 73.4 °F - 26.6 °F 18% 29.99 in 10.0 mi West 12.7 mph 26.5 mph N/A   Partly Cloudy
3:47 PM 75.2 °F - 26.6 °F 17% 29.99 in 10.0 mi WSW 16.1 mph 26.5 mph N/A   Partly Cloudy
4:47 PM 75.2 °F - 26.6 °F 17% 29.97 in 10.0 mi West 6.9 mph 16.1 mph N/A   Partly Cloudy
6:47 PM 71.6 °F - 28.4 °F 20% 29.96 in 10.0 mi WSW 6.9 mph 16.1 mph N/A   Partly Cloudy
7:47 PM 66.2 °F - 28.4 °F 24% 29.97 in 10.0 mi West 3.5 mph - N/A   Clear
8:47 PM 62.6 °F - 24.8 °F 24% 29.99 in 10.0 mi West 3.5 mph - N/A   Clear
9:47 PM 55.4 °F - 21.2 °F 26% 30.00 in 10.0 mi NE 3.5 mph - N/A   Clear
10:47 PM 53.6 °F - 24.8 °F 33% 30.00 in 10.0 mi WNW 3.5 mph - N/A   Clear
11:15 PM 50.0 °F - 24.8 °F 37% 30.00 in 10.0 mi NNW 4.6 mph - N/A   Clear
11:35 PM 46.4 °F - 23.0 °F 40% 30.00 in 10.0 mi Calm Calm - N/A   Clear
11:55 PM 46.4 °F 42.9 °F 23.0 °F 40% 30.00 in 10.0 mi NNW 6.9 mph - N/A   Clear